Time,TemperatureF,DewpointF,PressureIn,WindDirection,WindDirectionDegrees,WindSpeedMPH,WindSpeedGustMPH,Humidity,HourlyPrecipIn,Conditions,Clouds,dailyrainin,SoftwareType,DateUTC
2013-09-04 00:01:00,74.4,67.6,29.91,North,360,0.0,-999.0,79,0.00,,,0.00,PyWeather,2013-09-04 10:01:00,
2013-09-04 00:06:00,74.3,67.1,29.90,NE,34,2.0,-999.0,78,0.00,,,0.00,PyWeather,2013-09-04 10:06:00,
2013-09-04 00:11:00,74.2,67.0,29.91,NE,35,1.0,-999.0,78,0.00,,,0.00,PyWeather,2013-09-04 10:11:00,
2013-09-04 00:16:00,74.0,66.5,29.90,NNE,15,1.0,-999.0,77,0.00,,,0.00,PyWeather,2013-09-04 10:16:00,
2013-09-04 00:21:00,73.8,66.3,29.91,NE,36,2.0,-999.0,77,0.00,,,0.00,PyWeather,2013-09-04 10:21:00,
2013-09-04 00:26:00,73.5,66.3,29.91,NE,35,1.0,-999.0,78,0.00,,,0.00,PyWeather,2013-09-04 10:26:00,
2013-09-04 00:31:00,73.2,65.7,29.90,NE,55,1.0,8.0,77,0.00,,,0.00,PyWeather,2013-09-04 10:31:00,
2013-09-04 00:36:00,72.4,65.6,29.90,East,90,4.0,8.0,79,0.00,,,0.00,PyWeather,2013-09-04 10:36:00,
2013-09-04 00:41:00,71.8,65.4,29.91,NNE,30,4.0,11.0,80,0.00,,,0.00,PyWeather,2013-09-04 10:41:00,
2013-09-04 00:46:00,71.6,65.5,29.91,NNE,33,2.0,11.0,81,0.00,,,0.00,PyWeather,2013-09-04 10:46:00,
2013-09-04 00:51:00,71.4,65.3,29.91,NNE,26,2.0,-999.0,81,0.00,,,0.00,PyWeather,2013-09-04 10:51:00,
2013-09-04 00:56:00,71.6,65.5,29.91,NNE,31,1.0,-999.0,81,0.00,,,0.00,PyWeather,2013-09-04 10:56:00,
2013-09-04 01:01:00,71.9,65.8,29.90,NE,51,0.0,-999.0,81,0.00,,,0.00,PyWeather,2013-09-04 11:01:00,
2013-09-04 01:06:00,72.1,65.7,29.90,NE,51,0.0,-999.0,80,0.00,,,0.00,PyWeather,2013-09-04 11:06:00,
2013-09-04 01:11:00,72.4,65.6,29.90,NE,40,0.0,-999.0,79,0.00,,,0.00,PyWeather,2013-09-04 11:11:00,
2013-09-04 01:16:00,72.7,65.9,29.90,NE,40,1.0,-999.0,79,0.00,,,0.00,PyWeather,2013-09-04 11:16:00,
2013-09-04 01:21:00,73.0,65.8,29.90,NE,50,1.0,-999.0,78,0.00,,,0.00,PyWeather,2013-09-04 11:21:00,
2013-09-04 01:26:00,73.1,65.6,29.90,NE,51,1.0,-999.0,77,0.00,,,0.00,PyWeather,2013-09-04 11:26:00,
2013-09-04 01:31:00,73.1,65.2,29.90,NE,50,0.0,-999.0,76,0.00,,,0.00,PyWeather,2013-09-04 11:31:00,
2013-09-04 01:36:00,73.0,65.1,29.90,NE,51,0.0,-999.0,76,0.00,,,0.00,PyWeather,2013-09-04 11:36:00,
2013-09-04 01:41:00,72.9,65.4,29.90,NE,51,0.0,-999.0,77,0.00,,,0.00,PyWeather,2013-09-04 11:41:00,
2013-09-04 01:46:00,72.9,65.8,29.90,NE,49,0.0,-999.0,78,0.00,,,0.00,PyWeather,2013-09-04 11:46:00,
2013-09-04 01:51:00,73.0,65.5,29.90,NE,49,2.0,-999.0,77,0.00,,,0.00,PyWeather,2013-09-04 11:51:00,
2013-09-04 01:56:00,73.0,65.5,29.90,NE,41,3.0,-999.0,77,0.00,,,0.00,PyWeather,2013-09-04 11:56:00,
2013-09-04 02:01:00,72.9,65.4,29.90,NE,53,4.0,-999.0,77,0.00,,,0.00,PyWeather,2013-09-04 12:01:00,
2013-09-04 02:06:00,72.8,65.3,29.89,NE,44,5.0,-999.0,77,0.00,,,0.00,PyWeather,2013-09-04 12:06:00,
2013-09-04 02:11:00,72.8,65.3,29.89,ENE,57,5.0,-999.0,77,0.00,,,0.00,PyWeather,2013-09-04 12:11:00,
2013-09-04 02:16:00,72.5,64.6,29.89,ENE,76,5.0,-999.0,76,0.00,,,0.00,PyWeather,2013-09-04 12:16:00,
2013-09-04 02:21:00,71.8,64.0,29.89,ENE,77,4.0,-999.0,76,0.00,,,0.00,PyWeather,2013-09-04 12:21:00,
2013-09-04 02:26:00,71.7,64.2,29.89,NE,46,3.0,-999.0,77,0.00,,,0.00,PyWeather,2013-09-04 12:26:00,
2013-09-04 02:31:00,71.6,64.1,29.89,NE,46,1.0,-999.0,77,0.00,,,0.00,PyWeather,2013-09-04 12:31:00,
2013-09-04 02:36:00,71.1,64.4,29.89,NNE,20,2.0,-999.0,79,0.00,,,0.00,PyWeather,2013-09-04 12:36:00,
2013-09-04 02:41:00,71.1,64.7,29.89,NNE,29,3.0,-999.0,80,0.00,,,0.00,PyWeather,2013-09-04 12:41:00,
2013-09-04 02:46:00,71.5,64.7,29.89,NE,47,3.0,-999.0,79,0.00,,,0.00,PyWeather,2013-09-04 12:46:00,
2013-09-04 02:51:00,71.4,64.3,29.89,East,100,3.0,-999.0,78,0.00,,,0.00,PyWeather,2013-09-04 12:51:00,
2013-09-04 02:56:00,70.9,64.2,29.89,ESE,111,2.0,-999.0,79,0.00,,,0.00,PyWeather,2013-09-04 12:56:00,
2013-09-04 03:01:00,70.8,64.4,29.89,ESE,123,3.0,-999.0,80,0.00,,,0.00,PyWeather,2013-09-04 13:01:00,
2013-09-04 03:06:00,71.0,64.6,29.89,East,92,2.0,-999.0,80,0.00,,,0.00,PyWeather,2013-09-04 13:06:00,
2013-09-04 03:11:00,71.3,64.9,29.89,East,92,1.0,-999.0,80,0.00,,,0.00,PyWeather,2013-09-04 13:11:00,
2013-09-04 03:16:00,71.9,65.5,29.89,East,81,0.0,-999.0,80,0.00,,,0.00,PyWeather,2013-09-04 13:16:00,
2013-09-04 03:21:00,72.5,65.7,29.89,East,80,0.0,-999.0,79,0.00,,,0.00,PyWeather,2013-09-04 13:21:00,
2013-09-04 03:26:00,73.1,65.9,29.89,ENE,57,1.0,-999.0,78,0.00,,,0.00,PyWeather,2013-09-04 13:26:00,
2013-09-04 03:31:00,73.7,66.2,29.89,NNE,24,3.0,-999.0,77,0.00,,,0.00,PyWeather,2013-09-04 13:31:00,
2013-09-04 03:36:00,74.1,66.2,29.88,North,5,3.0,-999.0,76,0.00,,,0.00,PyWeather,2013-09-04 13:36:00,
2013-09-04 03:41:00,74.1,65.8,29.89,NE,34,3.0,-999.0,75,0.00,,,0.00,PyWeather,2013-09-04 13:41:00,
2013-09-04 03:46:00,73.8,65.9,29.89,NNE,32,2.0,-999.0,76,0.00,,,0.00,PyWeather,2013-09-04 13:46:00,
2013-09-04 03:51:00,73.5,65.6,29.88,NNE,19,3.0,-999.0,76,0.00,,,0.00,PyWeather,2013-09-04 13:51:00,
2013-09-04 03:56:00,73.3,65.4,29.88,NNE,23,4.0,-999.0,76,0.00,,,0.00,PyWeather,2013-09-04 13:56:00,
2013-09-04 04:02:00,73.1,65.2,29.88,NNE,21,2.0,-999.0,76,0.00,,,0.00,PyWeather,2013-09-04 14:02:00,
2013-09-04 04:07:00,73.0,65.5,29.88,NNE,24,1.0,-999.0,77,0.00,,,0.00,PyWeather,2013-09-04 14:07:00,
2013-09-04 04:12:00,72.6,65.5,29.88,NNE,26,3.0,-999.0,78,0.00,,,0.00,PyWeather,2013-09-04 14:12:00,
2013-09-04 04:17:00,72.4,65.3,29.88,NE,44,3.0,-999.0,78,0.00,,,0.00,PyWeather,2013-09-04 14:17:00,
2013-09-04 04:22:00,72.2,65.1,29.88,ENE,59,1.0,-999.0,78,0.00,,,0.00,PyWeather,2013-09-04 14:22:00,
2013-09-04 04:27:00,71.9,64.8,29.88,ENE,59,0.0,-999.0,78,0.00,,,0.00,PyWeather,2013-09-04 14:27:00,
2013-09-04 04:32:00,72.1,65.7,29.88,NE,43,0.0,-999.0,80,0.00,,,0.00,PyWeather,2013-09-04 14:32:00,
2013-09-04 04:37:00,72.3,65.9,29.88,NE,34,1.0,-999.0,80,0.00,,,0.00,PyWeather,2013-09-04 14:37:00,
2013-09-04 04:42:00,72.3,65.5,29.89,NE,36,1.0,-999.0,79,0.00,,,0.00,PyWeather,2013-09-04 14:42:00,
2013-09-04 04:47:00,72.2,65.4,29.89,NE,38,2.0,-999.0,79,0.00,,,0.00,PyWeather,2013-09-04 14:47:00,
2013-09-04 04:52:00,72.0,65.2,29.89,NE,38,2.0,-999.0,79,0.00,,,0.00,PyWeather,2013-09-04 14:52:00,
2013-09-04 04:57:00,71.7,64.9,29.89,NNE,32,1.0,-999.0,79,0.00,,,0.00,PyWeather,2013-09-04 14:57:00,
2013-09-04 05:02:00,71.2,64.5,29.89,NNE,31,1.0,-999.0,79,0.00,,,0.00,PyWeather,2013-09-04 15:02:00,
2013-09-04 05:07:00,70.9,64.5,29.89,NNE,30,1.0,-999.0,80,0.00,,,0.00,PyWeather,2013-09-04 15:07:00,
2013-09-04 05:12:00,70.8,65.1,29.89,NNE,30,1.0,-999.0,82,0.00,,,0.00,PyWeather,2013-09-04 15:12:00,
2013-09-04 05:17:00,70.9,65.2,29.89,NNE,30,0.0,-999.0,82,0.00,,,0.00,PyWeather,2013-09-04 15:17:00,
2013-09-04 05:22:00,70.8,64.8,29.90,NNE,30,0.0,-999.0,81,0.00,,,0.00,PyWeather,2013-09-04 15:22:00,
2013-09-04 05:27:00,70.5,64.5,29.90,NE,40,0.0,-999.0,81,0.00,,,0.00,PyWeather,2013-09-04 15:27:00,
2013-09-04 05:32:00,70.4,64.7,29.90,NE,47,1.0,-999.0,82,0.00,,,0.00,PyWeather,2013-09-04 15:32:00,
2013-09-04 05:37:00,71.0,65.3,29.90,NE,43,1.0,-999.0,82,0.00,,,0.00,PyWeather,2013-09-04 15:37:00,
2013-09-04 05:42:00,71.3,65.9,29.90,NE,42,1.0,-999.0,83,0.00,,,0.00,PyWeather,2013-09-04 15:42:00,
2013-09-04 05:47:00,71.6,66.2,29.90,NE,35,2.0,-999.0,83,0.00,,,0.00,PyWeather,2013-09-04 15:47:00,
2013-09-04 05:52:00,72.1,66.7,29.90,NE,34,3.0,-999.0,83,0.00,,,0.00,PyWeather,2013-09-04 15:52:00,
2013-09-04 05:57:00,72.2,66.8,29.90,NNE,29,4.0,-999.0,83,0.00,,,0.00,PyWeather,2013-09-04 15:57:00,
2013-09-04 06:02:00,72.4,67.0,29.90,NNE,28,4.0,-999.0,83,0.00,,,0.00,PyWeather,2013-09-04 16:02:00,
2013-09-04 06:07:00,72.6,66.9,29.91,NNE,28,3.0,-999.0,82,0.00,,,0.00,PyWeather,2013-09-04 16:07:00,
2013-09-04 06:12:00,72.6,66.9,29.91,NNE,28,2.0,-999.0,82,0.00,,,0.00,PyWeather,2013-09-04 16:12:00,
2013-09-04 06:17:00,72.7,67.0,29.91,NNE,28,0.0,-999.0,82,0.00,,,0.00,PyWeather,2013-09-04 16:17:00,
2013-09-04 06:22:00,72.7,67.3,29.91,NNE,25,1.0,-999.0,83,0.00,,,0.00,PyWeather,2013-09-04 16:22:00,
2013-09-04 06:27:00,72.9,67.5,29.91,NE,43,3.0,-999.0,83,0.00,,,0.00,PyWeather,2013-09-04 16:27:00,
2013-09-04 06:33:00,73.0,67.6,29.91,NE,49,4.0,-999.0,83,0.00,,,0.00,PyWeather,2013-09-04 16:33:00,
2013-09-04 06:38:00,73.4,67.3,29.91,NE,44,6.0,-999.0,81,0.00,,,0.00,PyWeather,2013-09-04 16:38:00,
2013-09-04 06:43:00,73.8,67.3,29.91,NE,34,6.0,-999.0,80,0.00,,,0.00,PyWeather,2013-09-04 16:43:00,
2013-09-04 06:48:00,73.8,66.6,29.91,NE,38,3.0,-999.0,78,0.00,,,0.00,PyWeather,2013-09-04 16:48:00,
2013-09-04 06:53:00,73.9,66.4,29.91,ENE,70,3.0,11.0,77,0.00,,,0.00,PyWeather,2013-09-04 16:53:00,
2013-09-04 06:58:00,74.1,66.2,29.91,NE,56,8.0,11.0,76,0.00,,,0.00,PyWeather,2013-09-04 16:58:00,
2013-09-04 07:03:00,74.5,65.8,29.91,NE,40,12.0,19.0,74,0.00,,,0.00,PyWeather,2013-09-04 17:03:00,
2013-09-04 07:08:00,74.9,65.8,29.91,NNE,32,13.0,19.0,73,0.00,,,0.00,PyWeather,2013-09-04 17:08:00,
2013-09-04 07:13:00,74.9,65.4,29.91,ENE,68,12.0,22.0,72,0.00,,,0.00,PyWeather,2013-09-04 17:13:00,
2013-09-04 07:18:00,75.0,65.2,29.91,ENE,57,9.0,22.0,71,0.00,,,0.00,PyWeather,2013-09-04 17:18:00,
2013-09-04 07:23:00,75.2,64.9,29.91,ENE,66,7.0,17.0,70,0.00,,,0.00,PyWeather,2013-09-04 17:23:00,
2013-09-04 07:28:00,75.6,64.9,29.91,ENE,67,8.0,17.0,69,0.00,,,0.00,PyWeather,2013-09-04 17:28:00,
2013-09-04 07:33:00,76.0,64.9,29.91,NE,44,9.0,-999.0,68,0.00,,,0.00,PyWeather,2013-09-04 17:33:00,
2013-09-04 07:38:00,76.4,64.9,29.91,NNE,31,9.0,-999.0,67,0.00,,,0.00,PyWeather,2013-09-04 17:38:00,
2013-09-04 07:43:00,76.6,64.6,29.91,North,360,10.0,16.0,66,0.00,,,0.00,PyWeather,2013-09-04 17:43:00,
2013-09-04 07:48:00,76.9,64.9,29.92,North,5,8.0,16.0,66,0.00,,,0.00,PyWeather,2013-09-04 17:48:00,
2013-09-04 07:53:00,76.6,65.9,29.92,North,10,7.0,-999.0,69,0.00,,,0.00,PyWeather,2013-09-04 17:53:00,
2013-09-04 07:58:00,76.1,65.8,29.92,NNE,23,9.0,-999.0,70,0.00,,,0.00,PyWeather,2013-09-04 17:58:00,
2013-09-04 08:03:00,76.2,65.9,29.92,North,351,10.0,16.0,70,0.00,,,0.00,PyWeather,2013-09-04 18:03:00,
2013-09-04 08:08:00,76.6,65.5,29.92,North,355,11.0,16.0,68,0.00,,,0.00,PyWeather,2013-09-04 18:08:00,
2013-09-04 08:13:00,76.9,65.8,29.92,North,360,12.0,-999.0,68,0.00,,,0.00,PyWeather,2013-09-04 18:13:00,
2013-09-04 08:18:00,76.9,65.8,29.92,North,360,11.0,-999.0,68,0.00,,,0.00,PyWeather,2013-09-04 18:18:00,
2013-09-04 08:23:00,76.8,66.1,29.92,NNE,14,10.0,-999.0,69,0.00,,,0.00,PyWeather,2013-09-04 18:23:00,
2013-09-04 08:28:00,76.8,66.1,29.92,North,9,9.0,-999.0,69,0.00,,,0.00,PyWeather,2013-09-04 18:28:00,
2013-09-04 08:33:00,76.9,66.2,29.92,North,5,8.0,15.0,69,0.00,,,0.00,PyWeather,2013-09-04 18:33:00,
2013-09-04 08:38:00,77.0,66.3,29.92,NNE,32,5.0,15.0,69,0.00,,,0.00,PyWeather,2013-09-04 18:38:00,
2013-09-04 08:43:00,77.1,66.4,29.92,NE,52,4.0,-999.0,69,0.00,,,0.00,PyWeather,2013-09-04 18:43:00,
2013-09-04 08:48:00,77.6,66.4,29.92,North,9,4.0,-999.0,68,0.00,,,0.00,PyWeather,2013-09-04 18:48:00,
2013-09-04 08:53:00,78.4,66.3,29.92,North,350,5.0,11.0,66,0.00,,,0.00,PyWeather,2013-09-04 18:53:00,
2013-09-04 08:58:00,78.6,66.5,29.92,North,9,6.0,11.0,66,0.00,,,0.00,PyWeather,2013-09-04 18:58:00,
2013-09-04 09:03:00,79.2,66.7,29.92,North,355,6.0,13.0,65,0.00,,,0.00,PyWeather,2013-09-04 19:03:00,
2013-09-04 09:08:00,79.8,66.8,29.92,NNE,22,6.0,13.0,64,0.00,,,0.00,PyWeather,2013-09-04 19:08:00,
2013-09-04 09:13:00,79.8,66.8,29.92,NE,42,8.0,14.0,64,0.00,,,0.00,PyWeather,2013-09-04 19:13:00,
2013-09-04 09:18:00,80.2,66.7,29.92,NE,40,9.0,14.0,63,0.00,,,0.00,PyWeather,2013-09-04 19:18:00,
2013-09-04 09:23:00,80.0,66.5,29.92,NE,44,8.0,-999.0,63,0.00,,,0.00,PyWeather,2013-09-04 19:23:00,
2013-09-04 09:28:00,80.2,67.2,29.92,NNE,14,7.0,-999.0,64,0.00,,,0.00,PyWeather,2013-09-04 19:28:00,
2013-09-04 09:33:00,80.2,67.2,29.92,NNE,15,7.0,14.0,64,0.00,,,0.00,PyWeather,2013-09-04 19:33:00,
2013-09-04 09:38:00,80.2,67.2,29.93,NE,47,8.0,14.0,64,0.00,,,0.00,PyWeather,2013-09-04 19:38:00,
2013-09-04 09:43:00,80.3,67.3,29.93,North,360,8.0,-999.0,64,0.00,,,0.00,PyWeather,2013-09-04 19:43:00,
2013-09-04 09:48:00,80.9,67.8,29.92,North,11,8.0,-999.0,64,0.00,,,0.00,PyWeather,2013-09-04 19:48:00,
2013-09-04 09:53:00,80.9,67.8,29.93,NE,47,9.0,23.0,64,0.00,,,0.00,PyWeather,2013-09-04 19:53:00,
2013-09-04 09:58:00,80.8,67.7,29.93,NNE,26,10.0,23.0,64,0.00,,,0.00,PyWeather,2013-09-04 19:58:00,
2013-09-04 10:03:00,80.8,68.2,29.93,NNE,15,10.0,17.0,65,0.00,,,0.00,PyWeather,2013-09-04 20:03:00,
2013-09-04 10:08:00,80.8,67.7,29.93,NNE,33,10.0,17.0,64,0.00,,,0.00,PyWeather,2013-09-04 20:08:00,
2013-09-04 10:13:00,81.1,68.5,29.93,North,360,10.0,20.0,65,0.00,,,0.00,PyWeather,2013-09-04 20:13:00,
2013-09-04 10:18:00,81.1,68.9,29.93,North,355,9.0,20.0,66,0.00,,,0.00,PyWeather,2013-09-04 20:18:00,
2013-09-04 10:23:00,81.4,70.1,29.93,NNE,17,11.0,18.0,68,0.00,,,0.00,PyWeather,2013-09-04 20:23:00,
2013-09-04 10:28:00,81.2,70.3,29.93,North,9,13.0,18.0,69,0.00,,,0.00,PyWeather,2013-09-04 20:28:00,
2013-09-04 10:33:00,80.3,70.7,29.93,North,5,14.0,21.0,72,0.00,,,0.00,PyWeather,2013-09-04 20:33:00,
2013-09-04 10:38:00,80.6,69.7,29.93,NNE,30,14.0,21.0,69,0.00,,,0.00,PyWeather,2013-09-04 20:38:00,
2013-09-04 10:43:00,80.2,70.2,29.92,North,355,14.0,-999.0,71,0.00,,,0.00,PyWeather,2013-09-04 20:43:00,
2013-09-04 10:48:00,79.8,69.8,29.92,NNW,344,15.0,-999.0,71,0.00,,,0.00,PyWeather,2013-09-04 20:48:00,
2013-09-04 10:53:00,79.6,69.6,29.92,North,5,15.0,22.0,71,0.00,,,0.00,PyWeather,2013-09-04 20:53:00,
2013-09-04 10:58:00,80.0,69.6,29.92,North,355,16.0,22.0,70,0.00,,,0.00,PyWeather,2013-09-04 20:58:00,
2013-09-04 11:03:00,80.3,69.4,29.92,North,351,16.0,23.0,69,0.00,,,0.00,PyWeather,2013-09-04 21:03:00,
2013-09-04 11:08:00,80.4,69.1,29.92,North,355,16.0,23.0,68,0.00,,,0.00,PyWeather,2013-09-04 21:08:00,
2013-09-04 11:13:00,80.6,69.3,29.91,North,5,16.0,-999.0,68,0.00,,,0.00,PyWeather,2013-09-04 21:13:00,
2013-09-04 11:18:00,80.9,69.6,29.92,North,360,14.0,-999.0,68,0.00,,,0.00,PyWeather,2013-09-04 21:18:00,
2013-09-04 11:23:00,81.0,69.3,29.92,North,351,12.0,21.0,67,0.00,,,0.00,PyWeather,2013-09-04 21:23:00,
2013-09-04 11:28:00,80.1,69.2,29.91,North,9,12.0,21.0,69,0.00,,,0.00,PyWeather,2013-09-04 21:28:00,
2013-09-04 11:33:00,80.5,69.2,29.91,North,351,14.0,21.0,68,0.00,,,0.00,PyWeather,2013-09-04 21:33:00,
2013-09-04 11:39:00,81.1,69.8,29.91,North,9,15.0,21.0,68,0.00,,,0.00,PyWeather,2013-09-04 21:39:00,
2013-09-04 11:44:00,81.3,69.5,29.91,North,355,15.0,-999.0,67,0.00,,,0.00,PyWeather,2013-09-04 21:44:00,
2013-09-04 11:49:00,81.1,69.3,29.91,NNE,15,15.0,-999.0,67,0.00,,,0.00,PyWeather,2013-09-04 21:49:00,
2013-09-04 11:54:00,81.2,69.4,29.91,North,5,15.0,-999.0,67,0.00,,,0.00,PyWeather,2013-09-04 21:54:00,
2013-09-04 11:59:00,80.9,69.2,29.90,NNW,348,15.0,-999.0,67,0.00,,,0.00,PyWeather,2013-09-04 21:59:00,
2013-09-04 12:04:00,81.0,70.1,29.90,North,11,14.0,22.0,69,0.00,,,0.00,PyWeather,2013-09-04 22:04:00,
2013-09-04 12:09:00,82.4,67.4,29.91,ENE,61,11.0,22.0,60,0.00,,,0.00,PyWeather,2013-09-04 22:09:00,
2013-09-04 12:14:00,82.6,67.1,29.90,NE,51,10.0,17.0,59,0.00,,,0.00,PyWeather,2013-09-04 22:14:00,
2013-09-04 12:19:00,82.8,66.2,29.90,ENE,64,10.0,17.0,57,0.00,,,0.00,PyWeather,2013-09-04 22:19:00,
2013-09-04 12:24:00,83.4,66.8,29.90,NE,34,11.0,18.0,57,0.00,,,0.00,PyWeather,2013-09-04 22:24:00,
2013-09-04 12:29:00,84.1,66.4,29.90,NNE,19,11.0,18.0,55,0.00,,,0.00,PyWeather,2013-09-04 22:29:00,
2013-09-04 12:34:00,83.8,65.6,29.90,NE,40,11.0,20.0,54,0.00,,,0.00,PyWeather,2013-09-04 22:34:00,
2013-09-04 12:39:00,83.5,65.8,29.90,North,5,11.0,20.0,55,0.00,,,0.00,PyWeather,2013-09-04 22:39:00,
2013-09-04 12:44:00,83.9,65.1,29.89,North,5,11.0,19.0,53,0.00,,,0.00,PyWeather,2013-09-04 22:44:00,
2013-09-04 12:49:00,83.6,66.5,29.89,North,5,13.0,19.0,56,0.00,,,0.00,PyWeather,2013-09-04 22:49:00,
2013-09-04 12:54:00,83.6,65.9,29.88,North,360,14.0,20.0,55,0.00,,,0.00,PyWeather,2013-09-04 22:54:00,
2013-09-04 12:59:00,83.6,67.0,29.88,NNE,17,13.0,20.0,57,0.00,,,0.00,PyWeather,2013-09-04 22:59:00,
2013-09-04 13:04:00,84.0,66.3,29.87,North,355,13.0,20.0,55,0.00,,,0.00,PyWeather,2013-09-04 23:04:00,
2013-09-04 13:09:00,83.6,68.5,29.87,North,355,15.0,20.0,60,0.00,,,0.00,PyWeather,2013-09-04 23:09:00,
2013-09-04 13:14:00,83.0,67.9,29.87,North,350,17.0,-999.0,60,0.00,,,0.00,PyWeather,2013-09-04 23:14:00,
2013-09-04 13:19:00,82.9,67.3,29.87,NNW,332,17.0,-999.0,59,0.00,,,0.00,PyWeather,2013-09-04 23:19:00,
2013-09-04 13:24:00,83.3,67.2,29.87,NE,34,15.0,-999.0,58,0.00,,,0.00,PyWeather,2013-09-04 23:24:00,
2013-09-04 13:29:00,83.2,67.1,29.87,NNW,339,14.0,-999.0,58,0.00,,,0.00,PyWeather,2013-09-04 23:29:00,
2013-09-04 13:34:00,82.2,66.7,29.87,North,9,15.0,22.0,59,0.00,,,0.00,PyWeather,2013-09-04 23:34:00,
2013-09-04 13:39:00,82.1,66.6,29.87,North,351,16.0,22.0,59,0.00,,,0.00,PyWeather,2013-09-04 23:39:00,
2013-09-04 13:44:00,82.4,66.9,29.87,North,355,15.0,22.0,59,0.00,,,0.00,PyWeather,2013-09-04 23:44:00,
2013-09-04 13:49:00,82.6,67.1,29.87,North,355,14.0,22.0,59,0.00,,,0.00,PyWeather,2013-09-04 23:49:00,
2013-09-04 13:54:00,82.1,67.6,29.87,North,351,14.0,22.0,61,0.00,,,0.00,PyWeather,2013-09-04 23:54:00,
2013-09-04 13:59:00,81.9,67.9,29.87,North,351,15.0,22.0,62,0.00,,,0.00,PyWeather,2013-09-04 23:59:00,
2013-09-04 14:04:00,81.7,67.7,29.87,North,350,16.0,23.0,62,0.00,,,0.00,PyWeather,2013-09-05 00:04:00,
2013-09-04 14:10:00,81.4,67.8,29.86,NW,320,17.0,23.0,63,0.00,,,0.00,PyWeather,2013-09-05 00:10:00,
2013-09-04 14:15:00,81.0,67.9,29.86,NNW,338,18.0,26.0,64,0.00,,,0.00,PyWeather,2013-09-05 00:15:00,
2013-09-04 14:20:00,81.1,68.0,29.86,NNW,335,20.0,26.0,64,0.00,,,0.00,PyWeather,2013-09-05 00:20:00,
2013-09-04 14:25:00,81.4,68.3,29.86,NNW,346,19.0,26.0,64,0.00,,,0.00,PyWeather,2013-09-05 00:25:00,
2013-09-04 14:30:00,81.6,68.5,29.86,NNW,346,18.0,26.0,64,0.00,,,0.00,PyWeather,2013-09-05 00:30:00,
2013-09-04 14:35:00,81.4,68.3,29.86,NNW,344,17.0,-999.0,64,0.00,,,0.00,PyWeather,2013-09-05 00:35:00,
2013-09-04 14:40:00,81.2,68.6,29.86,NNW,347,16.0,-999.0,65,0.00,,,0.00,PyWeather,2013-09-05 00:40:00,
2013-09-04 14:45:00,80.8,68.2,29.86,North,9,16.0,-999.0,65,0.00,,,0.00,PyWeather,2013-09-05 00:45:00,
2013-09-04 14:50:00,80.3,68.6,29.85,NNW,347,17.0,-999.0,67,0.00,,,0.00,PyWeather,2013-09-05 00:50:00,
2013-09-04 14:55:00,80.5,69.2,29.86,NNW,346,18.0,24.0,68,0.00,,,0.00,PyWeather,2013-09-05 00:55:00,
2013-09-04 15:00:00,80.6,68.9,29.85,NNW,340,18.0,24.0,67,0.00,,,0.00,PyWeather,2013-09-05 01:00:00,
2013-09-04 15:05:00,80.5,69.2,29.85,NNW,338,19.0,26.0,68,0.00,,,0.00,PyWeather,2013-09-05 01:05:00,
2013-09-04 15:10:00,80.5,69.2,29.85,NNW,338,18.0,26.0,68,0.00,,,0.00,PyWeather,2013-09-05 01:10:00,
2013-09-04 15:15:00,80.9,69.6,29.85,North,355,19.0,26.0,68,0.00,,,0.00,PyWeather,2013-09-05 01:15:00,
2013-09-04 15:20:00,80.4,69.1,29.85,NNW,331,18.0,26.0,68,0.00,,,0.00,PyWeather,2013-09-05 01:20:00,
2013-09-04 15:25:00,80.2,69.3,29.85,North,360,17.0,-999.0,69,0.00,,,0.00,PyWeather,2013-09-05 01:25:00,
2013-09-04 15:30:00,80.1,69.2,29.85,North,9,17.0,-999.0,69,0.00,,,0.00,PyWeather,2013-09-05 01:30:00,
2013-09-04 15:35:00,80.3,69.4,29.85,NNW,343,16.0,24.0,69,0.00,,,0.00,PyWeather,2013-09-05 01:35:00,
2013-09-04 15:40:00,80.2,69.8,29.85,North,355,17.0,24.0,70,0.00,,,0.00,PyWeather,2013-09-05 01:40:00,
2013-09-04 15:45:00,80.1,69.7,29.85,North,355,18.0,24.0,70,0.00,,,0.00,PyWeather,2013-09-05 01:45:00,
2013-09-04 15:50:00,80.1,70.1,29.85,North,350,18.0,24.0,71,0.00,,,0.00,PyWeather,2013-09-05 01:50:00,
2013-09-04 15:55:00,80.5,70.0,29.85,North,9,17.0,25.0,70,0.00,,,0.00,PyWeather,2013-09-05 01:55:00,
2013-09-04 16:00:00,80.6,70.5,29.85,NNW,342,18.0,25.0,71,0.00,,,0.00,PyWeather,2013-09-05 02:00:00,
2013-09-04 16:05:00,80.9,70.4,29.85,NNW,339,18.0,-999.0,70,0.00,,,0.00,PyWeather,2013-09-05 02:05:00,
2013-09-04 16:10:00,80.9,70.4,29.85,North,355,18.0,-999.0,70,0.00,,,0.00,PyWeather,2013-09-05 02:10:00,
2013-09-04 16:15:00,80.9,70.4,29.85,NNW,341,18.0,25.0,70,0.00,,,0.00,PyWeather,2013-09-05 02:15:00,
2013-09-04 16:20:00,80.9,70.4,29.85,North,355,19.0,25.0,70,0.00,,,0.00,PyWeather,2013-09-05 02:20:00,
2013-09-04 16:25:00,80.9,70.4,29.85,North,355,19.0,27.0,70,0.00,,,0.00,PyWeather,2013-09-05 02:25:00,
2013-09-04 16:30:00,81.0,70.1,29.85,North,360,19.0,27.0,69,0.00,,,0.00,PyWeather,2013-09-05 02:30:00,
2013-09-04 16:35:00,81.4,70.5,29.85,North,350,19.0,-999.0,69,0.00,,,0.00,PyWeather,2013-09-05 02:35:00,
2013-09-04 16:40:00,81.1,70.2,29.85,North,360,19.0,-999.0,69,0.00,,,0.00,PyWeather,2013-09-05 02:40:00,
2013-09-04 16:45:00,80.7,70.2,29.85,North,355,19.0,28.0,70,0.00,,,0.00,PyWeather,2013-09-05 02:45:00,
2013-09-04 16:50:00,80.7,70.6,29.85,North,355,18.0,28.0,71,0.00,,,0.00,PyWeather,2013-09-05 02:50:00,
2013-09-04 16:55:00,80.7,71.0,29.86,NNW,333,17.0,25.0,72,0.00,,,0.00,PyWeather,2013-09-05 02:55:00,
2013-09-04 17:00:00,80.6,70.9,29.85,NNW,344,16.0,25.0,72,0.00,,,0.00,PyWeather,2013-09-05 03:00:00,
2013-09-04 17:05:00,80.4,70.8,29.85,NNW,344,17.0,-999.0,72,0.00,,,0.00,PyWeather,2013-09-05 03:05:00,
2013-09-04 17:10:00,80.0,70.4,29.86,NNW,348,17.0,-999.0,72,0.00,,,0.00,PyWeather,2013-09-05 03:10:00,
2013-09-04 17:15:00,80.1,71.3,29.86,NNE,13,18.0,-999.0,74,0.00,,,0.00,PyWeather,2013-09-05 03:15:00,
2013-09-04 17:20:00,80.3,70.7,29.86,North,351,16.0,-999.0,72,0.00,,,0.00,PyWeather,2013-09-05 03:20:00,
2013-09-04 17:25:00,80.1,70.5,29.86,NNE,16,15.0,-999.0,72,0.00,,,0.00,PyWeather,2013-09-05 03:25:00,
2013-09-04 17:30:00,80.0,70.4,29.86,North,5,15.0,-999.0,72,0.00,,,0.00,PyWeather,2013-09-05 03:30:00,
2013-09-04 17:35:00,79.3,70.1,29.86,North,360,15.0,-999.0,73,0.00,,,0.00,PyWeather,2013-09-05 03:35:00,
2013-09-04 17:40:00,79.3,70.5,29.86,North,9,15.0,-999.0,74,0.00,,,0.00,PyWeather,2013-09-05 03:40:00,
2013-09-04 17:45:00,79.3,70.5,29.86,North,5,13.0,22.0,74,0.00,,,0.00,PyWeather,2013-09-05 03:45:00,
2013-09-04 17:50:00,79.1,70.3,29.87,North,11,13.0,22.0,74,0.00,,,0.00,PyWeather,2013-09-05 03:50:00,
2013-09-04 17:55:00,78.8,70.4,29.87,North,10,13.0,20.0,75,0.00,,,0.00,PyWeather,2013-09-05 03:55:00,
2013-09-04 18:00:00,78.4,70.0,29.87,NNE,12,12.0,20.0,75,0.00,,,0.00,PyWeather,2013-09-05 04:00:00,
2013-09-04 18:01:00,78.4,70.0,29.87,North,5,13.0,20.0,75,0.00,,,0.00,PyWeather,2013-09-05 04:01:00,
2013-09-04 18:02:00,78.4,70.0,29.87,NNE,17,12.0,-999.0,75,0.00,,,0.00,PyWeather,2013-09-05 04:02:00,
2013-09-04 18:04:00,78.4,70.0,29.87,North,355,12.0,-999.0,75,0.00,,,0.00,PyWeather,2013-09-05 04:04:00,
2013-09-04 18:07:00,78.4,70.0,29.87,North,355,12.0,-999.0,75,0.00,,,0.00,PyWeather,2013-09-05 04:07:00,
2013-09-04 18:12:00,78.3,69.5,29.87,North,5,12.0,-999.0,74,0.00,,,0.00,PyWeather,2013-09-05 04:12:00,
2013-09-04 18:13:00,78.3,69.1,29.87,NNE,28,12.0,-999.0,73,0.00,,,0.00,PyWeather,2013-09-05 04:13:00,
2013-09-04 18:18:00,78.2,69.0,29.87,North,360,12.0,-999.0,73,0.00,,,0.00,PyWeather,2013-09-05 04:18:00,
2013-09-04 18:23:00,77.9,68.7,29.87,North,360,11.0,-999.0,73,0.00,,,0.00,PyWeather,2013-09-05 04:23:00,
2013-09-04 18:28:00,77.7,68.5,29.88,NNE,13,12.0,-999.0,73,0.00,,,0.00,PyWeather,2013-09-05 04:28:00,
2013-09-04 18:33:00,77.7,68.9,29.88,North,351,12.0,-999.0,74,0.00,,,0.00,PyWeather,2013-09-05 04:33:00,
2013-09-04 18:38:00,77.6,68.8,29.88,North,360,13.0,-999.0,74,0.00,,,0.00,PyWeather,2013-09-05 04:38:00,
2013-09-04 18:43:00,77.6,68.8,29.88,North,360,13.0,-999.0,74,0.00,,,0.00,PyWeather,2013-09-05 04:43:00,
2013-09-04 18:48:00,77.5,68.7,29.88,North,11,13.0,-999.0,74,0.00,,,0.00,PyWeather,2013-09-05 04:48:00,
2013-09-04 18:53:00,77.3,68.5,29.88,North,350,13.0,-999.0,74,0.00,,,0.00,PyWeather,2013-09-05 04:53:00,
2013-09-04 18:58:00,77.1,68.3,29.89,North,351,13.0,-999.0,74,0.00,,,0.00,PyWeather,2013-09-05 04:58:00,
2013-09-04 19:03:00,77.1,68.3,29.89,North,351,13.0,-999.0,74,0.00,,,0.00,PyWeather,2013-09-05 05:03:00,
2013-09-04 19:08:00,77.0,68.3,29.88,North,349,13.0,-999.0,74,0.00,,,0.00,PyWeather,2013-09-05 05:08:00,
2013-09-04 19:13:00,76.9,68.2,29.89,NNW,344,13.0,-999.0,74,0.00,,,0.00,PyWeather,2013-09-05 05:13:00,
2013-09-04 19:18:00,76.9,68.2,29.89,North,355,13.0,-999.0,74,0.00,,,0.00,PyWeather,2013-09-05 05:18:00,
2013-09-04 19:23:00,76.6,68.2,29.89,North,355,11.0,-999.0,75,0.00,,,0.00,PyWeather,2013-09-05 05:23:00,
2013-09-04 19:28:00,76.5,68.1,29.89,North,360,11.0,-999.0,75,0.00,,,0.00,PyWeather,2013-09-05 05:28:00,
2013-09-04 19:33:00,76.5,68.1,29.89,NNW,344,12.0,18.0,75,0.00,,,0.00,PyWeather,2013-09-05 05:33:00,
2013-09-04 19:38:00,76.3,68.3,29.89,North,360,11.0,18.0,76,0.00,,,0.00,PyWeather,2013-09-05 05:38:00,
2013-09-04 19:43:00,76.2,68.2,29.89,NNW,335,12.0,20.0,76,0.00,,,0.00,PyWeather,2013-09-05 05:43:00,
2013-09-04 19:49:00,76.1,68.1,29.89,North,355,12.0,20.0,76,0.00,,,0.00,PyWeather,2013-09-05 05:49:00,
2013-09-04 19:54:00,76.1,68.1,29.89,North,355,11.0,-999.0,76,0.00,,,0.00,PyWeather,2013-09-05 05:54:00,
2013-09-04 19:59:00,76.0,68.0,29.90,NNW,344,11.0,-999.0,76,0.00,,,0.00,PyWeather,2013-09-05 05:59:00,
2013-09-04 20:04:00,76.0,68.0,29.90,North,9,11.0,19.0,76,0.00,,,0.00,PyWeather,2013-09-05 06:04:00,
2013-09-04 20:09:00,75.7,67.7,29.90,NNW,344,10.0,19.0,76,0.00,,,0.00,PyWeather,2013-09-05 06:09:00,
2013-09-04 20:14:00,75.3,67.0,29.90,North,355,10.0,-999.0,75,0.00,,,0.00,PyWeather,2013-09-05 06:14:00,
2013-09-04 20:19:00,75.1,67.2,29.90,NNW,348,10.0,-999.0,76,0.00,,,0.00,PyWeather,2013-09-05 06:19:00,
2013-09-04 20:24:00,75.0,67.1,29.91,NNW,345,10.0,-999.0,76,0.00,,,0.00,PyWeather,2013-09-05 06:24:00,
2013-09-04 20:29:00,75.0,67.1,29.91,NNW,346,10.0,-999.0,76,0.00,,,0.00,PyWeather,2013-09-05 06:29:00,
2013-09-04 20:34:00,75.1,67.2,29.91,NNW,344,10.0,-999.0,76,0.00,,,0.00,PyWeather,2013-09-05 06:34:00,
2013-09-04 20:39:00,75.0,66.3,29.91,North,5,10.0,-999.0,74,0.00,,,0.00,PyWeather,2013-09-05 06:39:00,
2013-09-04 20:44:00,74.9,65.8,29.91,North,355,8.0,-999.0,73,0.00,,,0.00,PyWeather,2013-09-05 06:44:00,
2013-09-04 20:49:00,74.5,65.4,29.92,North,351,6.0,-999.0,73,0.00,,,0.00,PyWeather,2013-09-05 06:49:00,
2013-09-04 20:54:00,74.0,64.6,29.92,North,350,6.0,-999.0,72,0.00,,,0.00,PyWeather,2013-09-05 06:54:00,
2013-09-04 20:59:00,73.8,63.6,29.92,North,360,6.0,-999.0,70,0.00,,,0.00,PyWeather,2013-09-05 06:59:00,
2013-09-04 21:04:00,73.7,63.9,29.92,North,360,6.0,-999.0,71,0.00,,,0.00,PyWeather,2013-09-05 07:04:00,
2013-09-04 21:09:00,73.5,64.1,29.92,North,360,6.0,-999.0,72,0.00,,,0.00,PyWeather,2013-09-05 07:09:00,
2013-09-04 21:14:00,73.3,63.9,29.92,North,11,6.0,-999.0,72,0.00,,,0.00,PyWeather,2013-09-05 07:14:00,
2013-09-04 21:19:00,73.1,63.7,29.92,North,9,5.0,-999.0,72,0.00,,,0.00,PyWeather,2013-09-05 07:19:00,
2013-09-04 21:24:00,73.0,63.6,29.92,North,5,4.0,-999.0,72,0.00,,,0.00,PyWeather,2013-09-05 07:24:00,
2013-09-04 21:29:00,72.8,63.4,29.93,North,5,4.0,-999.0,72,0.00,,,0.00,PyWeather,2013-09-05 07:29:00,
2013-09-04 21:34:00,72.5,63.5,29.93,North,5,4.0,-999.0,73,0.00,,,0.00,PyWeather,2013-09-05 07:34:00,
2013-09-04 21:39:00,72.5,63.1,29.93,North,360,5.0,-999.0,72,0.00,,,0.00,PyWeather,2013-09-05 07:39:00,
2013-09-04 21:44:00,72.9,63.9,29.93,North,355,5.0,-999.0,73,0.00,,,0.00,PyWeather,2013-09-05 07:44:00,
2013-09-04 21:49:00,73.7,65.1,29.93,North,355,5.0,-999.0,74,0.00,,,0.00,PyWeather,2013-09-05 07:49:00,
2013-09-04 21:54:00,74.5,66.2,29.93,North,350,6.0,-999.0,75,0.00,,,0.00,PyWeather,2013-09-05 07:54:00,
2013-09-04 21:59:00,74.7,66.4,29.93,NNW,342,6.0,-999.0,75,0.00,,,0.00,PyWeather,2013-09-05 07:59:00,
2013-09-04 22:04:00,74.8,65.0,29.93,North,355,5.0,-999.0,71,0.00,,,0.00,PyWeather,2013-09-05 08:04:00,
2013-09-04 22:09:00,73.9,62.5,29.93,NNE,17,6.0,-999.0,67,0.00,,,0.00,PyWeather,2013-09-05 08:09:00,
2013-09-04 22:14:00,73.2,62.6,29.93,NNE,21,6.0,-999.0,69,0.00,,,0.00,PyWeather,2013-09-05 08:14:00,
2013-09-04 22:19:00,72.4,62.6,29.93,NNE,30,5.0,-999.0,71,0.00,,,0.00,PyWeather,2013-09-05 08:19:00,
2013-09-04 22:24:00,72.4,63.0,29.93,ENE,71,4.0,-999.0,72,0.00,,,0.00,PyWeather,2013-09-05 08:24:00,
2013-09-04 22:29:00,72.8,63.8,29.94,NE,48,3.0,-999.0,73,0.00,,,0.00,PyWeather,2013-09-05 08:29:00,
2013-09-04 22:34:00,73.0,64.4,29.93,NE,48,2.0,-999.0,74,0.00,,,0.00,PyWeather,2013-09-05 08:34:00,
2013-09-04 22:39:00,72.9,64.7,29.93,NE,48,1.0,-999.0,75,0.00,,,0.00,PyWeather,2013-09-05 08:39:00,
2013-09-04 22:44:00,72.8,64.9,29.93,NE,49,0.0,-999.0,76,0.00,,,0.00,PyWeather,2013-09-05 08:44:00,
2013-09-04 22:49:00,71.7,63.1,29.93,North,9,1.0,-999.0,74,0.00,,,0.00,PyWeather,2013-09-05 08:49:00,
2013-09-04 22:54:00,71.3,63.1,29.93,NNE,28,2.0,-999.0,75,0.00,,,0.00,PyWeather,2013-09-05 08:54:00,
2013-09-04 22:59:00,71.4,63.6,29.93,NNE,28,1.0,-999.0,76,0.00,,,0.00,PyWeather,2013-09-05 08:59:00,
2013-09-04 23:04:00,71.6,63.8,29.93,NE,45,0.0,-999.0,76,0.00,,,0.00,PyWeather,2013-09-05 09:04:00,
2013-09-04 23:09:00,71.9,64.4,29.93,NE,45,0.0,-999.0,77,0.00,,,0.00,PyWeather,2013-09-05 09:09:00,
2013-09-04 23:14:00,72.1,64.6,29.93,NE,44,0.0,-999.0,77,0.00,,,0.00,PyWeather,2013-09-05 09:14:00,
2013-09-04 23:19:00,72.2,64.7,29.93,NE,46,0.0,-999.0,77,0.00,,,0.00,PyWeather,2013-09-05 09:19:00,
2013-09-04 23:24:00,72.2,64.7,29.93,NE,46,0.0,-999.0,77,0.00,,,0.00,PyWeather,2013-09-05 09:24:00,
2013-09-04 23:29:00,72.2,64.7,29.93,NE,56,0.0,-999.0,77,0.00,,,0.00,PyWeather,2013-09-05 09:29:00,
2013-09-04 23:34:00,72.1,64.6,29.93,ENE,72,0.0,-999.0,77,0.00,,,0.00,PyWeather,2013-09-05 09:34:00,
2013-09-04 23:39:00,71.8,64.7,29.92,NNE,33,0.0,-999.0,78,0.00,,,0.00,PyWeather,2013-09-05 09:39:00,
2013-09-04 23:44:00,71.7,64.9,29.92,ENE,61,0.0,-999.0,79,0.00,,,0.00,PyWeather,2013-09-05 09:44:00,
2013-09-04 23:49:00,71.8,65.0,29.92,ENE,62,0.0,-999.0,79,0.00,,,0.00,PyWeather,2013-09-05 09:49:00,
2013-09-04 23:54:00,71.7,64.9,29.92,ENE,62,0.0,-999.0,79,0.00,,,0.00,PyWeather,2013-09-05 09:54:00,
2013-09-04 23:59:00,71.4,64.6,29.92,ENE,62,0.0,-999.0,79,0.00,,,0.00,PyWeather,2013-09-05 09:59:00,